Regional Weather Roundup
Issued by NWS

Home | Current Version | Previous Version | Text Only | Print | Product List | Glossary On
Versions: 1 2 3 4 5 6 7 8 9 10 11 12 13 14 15 16 17 18 19 20 21 22 23 24 25 26 27 28 29 30 31 32 33 34 35 36 37 38 39 40 41 42 43 44 45 46 47 48 49 50
000
ASUS43 KOAX 202310
RWRNE

WEATHER ROUNDUP FOR NEBRASKA
NATIONAL WEATHER SERVICE OMAHA NE
600 PM CDT SUN AUG 20 2017

NOTES: SATELLITE DATA IS BEING USED TO AUGMENT CLOUD COVER ABOVE
       12000 FEET.
       "FAIR" INDICATES FEW OR NO CLOUDS BELOW 12,000 FEET WITH NO
       SIGNIFICANT WEATHER AND/OR OBSTRUCTIONS TO VISIBILITY.


NEZ001>004-019>022-054>056-210000-
NEBRASKA PANHANDLE

CITY           SKY/WX    TMP DP  RH WIND       PRES   REMARKS
SCOTTSBLUFF    SUNNY     87  57  35 E10       30.00F
ALLIANCE       SUNNY     83  57  41 E15       30.00F
CHADRON        SUNNY     86  53  32 E16       29.97F
GORDON         FAIR      83  52  34 E14       30.02R
KIMBALL        SUNNY     85  54  33 E9        30.06F
SIDNEY         SUNNY     88  57  34 E12       30.03F
$$

NEZ057>060-069>072-079>082-210000-
SOUTHWEST NEBRASKA

CITY           SKY/WX    TMP DP  RH WIND       PRES   REMARKS
NORTH PLATTE   CLOUDY    87  69  54 E12       29.94S HX  91
IMPERIAL       SUNNY     89  62  40 NE7       29.95S
LEXINGTON      PTSUNNY   84  74  70 NE7       29.92S HX  91
MCCOOK         MOSUNNY   94  64  37 NE7       29.90S HX  95
OGALLALA       SUNNY     87  66  49 E13       29.97S
$$

NEZ005>010-023>029-035>040-094-210000-
NORTH CENTRAL NEBRASKA

CITY           SKY/WX    TMP DP  RH WIND       PRES   REMARKS
VALENTINE      SUNNY     86  47  25 E21G28    29.99S
AINSWORTH      MOSUNNY   80  69  71 E8        29.99S
BROKEN BOW     CLOUDY    84  69  60 E12       29.96R
O`NEILL        CLOUDY    80  69  68 SE8       29.97S
ORD            PTSUNNY   82  69  64 E12       29.94R
THEDFORD       MOSUNNY   83  65  54 E9        29.99R
$$

NEZ041-046>049-061>064-073>077-083>087-210000-
SOUTH CENTRAL NEBRASKA

CITY           SKY/WX    TMP DP  RH WIND       PRES   REMARKS
GRAND ISLAND   SUNNY     87  75  67 E8        29.92S HX  96
AURORA         SUNNY     86  76  71 E9        29.91S HX  96
HASTINGS       CLOUDY    89  73  59 SE15G22   29.90F HX  97
HEBRON         CLOUDY    91  72  52 SE9       29.88F HX  99
HOLDREGE       SUNNY     88  73  60 E6        29.90S HX  95
KEARNEY        SUNNY     87  78  74 E9        29.92R HX 100
YORK           SUNNY     84  77  79 E9        29.91S HX  94
$$

NEZ011>018-030>034-042>045-210000-
NORTHEAST NEBRASKA

CITY           SKY/WX    TMP DP  RH WIND       PRES   REMARKS
NORFOLK        CLOUDY    81  70  69 SE8       29.95S
ALBION         PTSUNNY   81  72  73 E6        29.96S
BLAIR          SUNNY     83  67  59 S14G22    29.95S
COLUMBUS       CLOUDY    82  73  74 E8        29.94S
FREMONT        SUNNY     83  67  58 SE14G22   29.94S
TEKAMAH        SUNNY     83  68  60 SE6       29.94R
WAYNE          CLOUDY    80  71  73 SE6       29.96S
$$

NEZ050>053-065>068-078-088>093-210000-
SOUTHEAST NEBRASKA

CITY           SKY/WX    TMP DP  RH WIND       PRES   REMARKS
LINCOLN        SUNNY     86  72  62 SE13      29.92S HX  92
OMAHA EPPLEY   MOSUNNY   85  65  51 S16G24    29.94S
BEATRICE       PTSUNNY   88  73  61 SE14G21   29.91S HX  96
FALLS CITY     PTSUNNY   85  68  56 SE14      29.94F
NEBRASKA CITY  SUNNY     83  69  61 S15G22    29.94F
PLATTSMOUTH    SUNNY     83  67  59 SE9       29.94F
$$

NEZ044-045-051>053-067-210000-
OMAHA AREA

CITY           SKY/WX    TMP DP  RH WIND       PRES   REMARKS
OMAHA EPPLEY   MOSUNNY   85  65  51 S16G24    29.94S
BLAIR          SUNNY     83  67  59 S14G22    29.95S
FREMONT        SUNNY     83  67  58 SE14G22   29.94S
MILLARD        SUNNY     86  68  56 SE14G20   29.94S
OFFUTT AFB     SUNNY     84  67  55 SE10      29.93F
PLATTSMOUTH    SUNNY     83  67  59 SE9       29.94F
WAHOO          FAIR      83  70  63 SE16      29.94S
$$




USA.gov is the U.S. government's official web portal to all federal, state and local government web resources and services.